Regional Weather Roundup
Issued by NWS

Home | Current Version | Previous Version | Graphics & Text | Print | Product List | Glossary On
Versions: 1 2 3 4 5 6 7 8 9 10 11 12 13 14 15 16 17 18 19 20 21 22 23 24 25 26 27 28 29 30 31 32 33 34 35 36 37 38 39 40 41 42 43 44 45 46 47 48 49 50
000
ASUS43 KOAX 281802
RWRNE

WEATHER ROUNDUP FOR NEBRASKA
NATIONAL WEATHER SERVICE OMAHA NE
100 PM CDT SAT MAR 28 2015

NOTES: SATELLITE DATA IS BEING USED TO AUGMENT CLOUD COVER ABOVE
       12000 FEET.
       "FAIR" INDICATES FEW OR NO CLOUDS BELOW 12,000 FEET WITH NO
       SIGNIFICANT WEATHER AND/OR OBSTRUCTIONS TO VISIBILITY.

  * THESE STATIONS DO NOT REPORT WEATHER SUCH AS RAIN...SNOW OR FOG.

NEZ001>004-019>022-054>056-281900-
NEBRASKA PANHANDLE

CITY           SKY/WX    TMP DP  RH WIND       PRES   REMARKS
SCOTTSBLUFF    SUNNY     73  33  23 W12G23    29.92F
6HR MIN TEMP:  30; 6HR MAX TEMP:  74;

ALLIANCE       SUNNY     73  30  20 W12G20    29.91F
6HR MIN TEMP:  26; 6HR MAX TEMP:  73;

CHADRON        SUNNY     73  34  23 VRB3      29.86F
6HR MIN TEMP:  30; 6HR MAX TEMP:  73;

KIMBALL        SUNNY     74  27  17 W16G22    29.97F
SIDNEY         SUNNY     74  31  20 VRB5      29.96F
6HR MIN TEMP:  37; 6HR MAX TEMP:  75;

$$

NEZ057>060-069>072-079>082-281900-
SOUTHWEST NEBRASKA

CITY           SKY/WX    TMP DP  RH WIND       PRES   REMARKS
NORTH PLATTE   SUNNY     69  37  30 S12       29.97F
6HR MIN TEMP:  27; 6HR MAX TEMP:  70;

IMPERIAL         N/A     70  35  27 S8        29.98F
6HR MIN TEMP:  32; 6HR MAX TEMP:  70;

MCCOOK         SUNNY     68  36  30 S12       29.99F
6HR MIN TEMP:  33; 6HR MAX TEMP:  68;

$$

NEZ005>010-023>029-035>040-094-281900-
NORTH CENTRAL NEBRASKA

CITY           SKY/WX    TMP DP  RH WIND       PRES   REMARKS
VALENTINE      SUNNY     66  35  31 S15       29.92F
6HR MIN TEMP:  26; 6HR MAX TEMP:  66;

AINSWORTH      SUNNY     62  34  34 S13G20    29.95F
BROKEN BOW     SUNNY     59  34  39 SE12G23   29.99F
6HR MIN TEMP:  24; 6HR MAX TEMP:  59;

ORD            SUNNY     53  29  39 SE10      30.02F
6HR MIN TEMP:  22; 6HR MAX TEMP:  53;

$$

NEZ041-046>049-061>064-073>077-083>087-281900-
SOUTH CENTRAL NEBRASKA

CITY           SKY/WX    TMP DP  RH WIND       PRES   REMARKS
GRAND ISLAND   SUNNY     52  31  44 SE13      30.06F
6HR MIN TEMP:  29; 6HR MAX TEMP:  52;

HASTINGS       SUNNY     54  31  41 SE12      30.04F
6HR MIN TEMP:  29; 6HR MAX TEMP:  54;

HEBRON         SUNNY     52  30  41 E10G17    30.07F
KEARNEY *      SUNNY     55  30  38 SE10      30.04F
$$

NEZ011>018-030>034-042>045-281900-
NORTHEAST NEBRASKA

CITY           SKY/WX    TMP DP  RH WIND       PRES   REMARKS
NORFOLK        SUNNY     46  31  55 SE15      30.08F
6HR MIN TEMP:  27; 6HR MAX TEMP:  46;

ALBION         SUNNY     48  29  48 SE9G17    30.06F
BLAIR          SUNNY     48  27  43 SE10G16   30.13F
COLUMBUS *     SUNNY     48  28  46 SE14      30.11F
TEKAMAH        SUNNY     50  26  39 SE21G36   30.14F
6HR MIN TEMP:  29; 6HR MAX TEMP:  50;

$$

NEZ050>053-065>068-078-088>093-281900-
SOUTHEAST NEBRASKA

CITY           SKY/WX    TMP DP  RH WIND       PRES   REMARKS
LINCOLN        SUNNY     50  30  46 S16       30.13F
6HR MIN TEMP:  31; 6HR MAX TEMP:  50;

OMAHA EPPLEY   MOSUNNY   48  27  44 S15G23    30.15F
6HR MIN TEMP:  32; 6HR MAX TEMP:  48;

FALLS CITY     SUNNY     49  30  48 SE14G23   30.15F
6HR MIN TEMP:  34; 6HR MAX TEMP:  51;

PLATTSMOUTH    SUNNY     48  26  41 SE9G18    30.15S
$$

NEZ044-045-051>053-067-281900-
OMAHA AREA

CITY           SKY/WX    TMP DP  RH WIND       PRES   REMARKS
OMAHA EPPLEY   MOSUNNY   48  27  44 S15G23    30.15F
6HR MIN TEMP:  32; 6HR MAX TEMP:  48;

BLAIR          SUNNY     48  27  43 SE10G16   30.13F
OFFUTT AFB     SUNNY     49  28  45 SE15G22   30.15F
PLATTSMOUTH    SUNNY     48  26  41 SE9G18    30.15S
$$


USA.gov is the U.S. government's official web portal to all federal, state and local government web resources and services.